METOP SG-A

Satellite information

Favourite Embed

Satellite Type and Status

PAYLOADIN ORBIT

Key statistics

Satellite METOP SG-A at a glance.

Uptime

78

Days in orbit

Revolutions

≈ 14.2

Per day

Orbit

SSO

Sun Synchronous Orbit

Inclination

98.7

Latest

Satellite identification and parameters

Extended collection of information and parameters for METOP SG-A.

Object identification

Identified? True

Debris? False

Object name: METOP SG-A

International designator: 2025-172A

Object number (NORAD): 65159

Object ID (CCSDS): 65159

Country: EUROPEAN SPACE AGENCY (ESA)

Current information (Y/N): Y

RCS size: LARGE

Orbital parameters

Period: 101.198 minutes

Inclination: 98.6986 deg

SMA: 7193.526 km

Apoapsis: 820.84 km

Periapsis: 809.942 km

RAAN: 0.9475 deg

Eccentricy: 0.00075753

Argument of periapsis: 147.365 deg

Mean anomaly: 212.7998 deg

Mean motion: 14.22951305 rev/day

Mean motion (dot): 0.00000092 rev/day2

B* drag term: 0.000060485895 1/REarth

Two-line elements (TLE)

Creation date: Oct. 30, 2025, 3:32 a.m.

Reference frame: TEME

Reference center: EARTH

Epoch: Oct. 29, 2025, 10:15 a.m. UTC

TLE line 0: 0 METOP SG-A

TLE line 1: 1 65159U 25172A 25302.42763623 .00000092 00000-0 60486-4 0 9997

TLE line 2: 2 65159 98.6986 0.9475 0007575 147.3650 212.7998 14.22951305 11001

Live tracking on map

Real-time ground track for satellite METOP SG-A.

In-orbit conjunctions

There are no conjunctions computed for METOP SG-A, at the moment. Check back to stay up to date, as we update our databases every day.

Go to all conjunctions

Associated space launch

First of EUMETSAT's second generation of Metop weather satellites.

METOP SG-A was lifted into orbit during the mission ‘Ariane 62 | Metop-SG A1’, on board a Ariane 62 space rocket.

The launch took place on Aug. 13, 2025, 12:37 a.m. from Ariane Launch Area 4.

For more information about the launch, click the button.

Launch to space Ariane 62 | Metop-SG A1
Ariane 62 | Metop-SG A1

Agency: European Organisation for the Exploitation of Meteorological Satellites

Status: Launch Successful

Launch date: Aug. 13, 2025, 12:37 a.m. UTC

Rocket: Ariane 62

Launch pad: Ariane Launch Area 4

Location: Guiana Space Centre, French Guiana

...

Latest news about this satellite

News about space launch
First view of aerosols from MetOp-SG’s 3MI instrument

From the ESA Blogs.

News about space launch
New MetOp Second Generation weather satellite returns first data

Less than three weeks since the first MetOp Second Generation weather satellite, MetOp-SG-A1, was launched, this remarkable new satellite has already started transmitting data from two of its cutting-edge instruments, offering a tantalising glimpse of wha...

News about space launch
Time moves fast when you are preparing for liftoff!

This video shows a timelapse of the launch preparations for Europe’s first MetOp Second Generation, MetOp-SG-A1, weather satellite, which hosts the Copernicus Sentinel-5 mission. MetOp-SG-A1 was launched aboard an Ariane 6 rocket from the European spacepo...


Newsletter sign-up

Weekly statistics, charts and insights to help you stay on top of the space industry.